Philadelphia, PA

9:11 PM EST on February 11, 2016 (GMT -0500)
Northeast Philadelphia

Weather History for KPNE - April, 2013

Change the Weather History Date:

Wednesday, April 10, 2013

  Actual Average Record
Temperature  
Mean Temperature 74 °F -  
Max Temperature 88 °F 59 °F 88 °F (2013)
Min Temperature 60 °F 39 °F 28 °F (1997)
Cooling Degree Days 8    
Growing Degree Days 24 (Base 50)    
Moisture  
Dew Point 54 °F    
Average Humidity 61    
Maximum Humidity 96    
Minimum Humidity 33    
Precipitation  
Precipitation 0.46 in - - ()
Sea Level Pressure  
Sea Level Pressure 29.88 in    
Wind  
Wind Speed 10 mph (WSW)    
Max Wind Speed 30 mph    
Max Gust Speed 51 mph    
Visibility 9 miles    
Events Rain , Thunderstorm    
Averages and records for this station are not official NWS values.
T = Trace of Precipitation, MM = Missing Value Source: NWS Daily Summary

Daily Weather History Graph

Daily Weather History Graph

Search for Another Location

Airport or City:

Trip Planner

Search our weather history database for the weather conditions in past years. The results will help you decide how hot, cold, wet, or windy it might be!

Date:

Astronomy

Apr. 10, 2013 Rise Set
Actual Time 6:29 AM EDT 7:33 PM EDT
Civil Twilight 6:01 AM EDT 8:01 PM EDT
Nautical Twilight 5:28 AM EDT 8:34 PM EDT
Astronomical Twilight 4:54 AM EDT 9:09 PM EDT
Moon 6:24 AM EDT (4/10) 8:07 PM EDT (4/10)
Length of Visible Light 14h 00m
Length of Day
13h 04m
New Moon, 0% of the Moon is Illuminated
Apr 10
New Moon
Apr 18
First Quarter
Apr 25
Full
May 2
Last Quarter
May 9
New

Hourly Weather History & Observations

Time (EDT) Temp. Heat Index Dew Point Humidity Pressure Visibility Wind Dir Wind Speed Gust Speed Precip Events Conditions
12:54 AM 71.1 °F - 51.1 °F 49% 29.90 in 10.0 mi SW 11.5 mph - N/A   Clear
1:54 AM 69.1 °F - 52.0 °F 54% 29.87 in 10.0 mi SW 12.7 mph 19.6 mph N/A   Clear
2:54 AM 66.9 °F - 52.0 °F 59% 29.87 in 10.0 mi SW 9.2 mph - N/A   Clear
3:54 AM 66.0 °F - 52.0 °F 60% 29.87 in 10.0 mi WSW 8.1 mph - N/A   Clear
4:54 AM 64.9 °F - 52.0 °F 63% 29.88 in 10.0 mi SW 6.9 mph - N/A   Clear
5:54 AM 64.9 °F - 52.0 °F 63% 29.89 in 10.0 mi SW 5.8 mph - N/A   Clear
6:54 AM 64.0 °F - 51.1 °F 63% 29.91 in 10.0 mi WSW 4.6 mph - N/A   Clear
7:54 AM 66.9 °F - 53.1 °F 61% 29.94 in 10.0 mi Calm Calm - N/A   Mostly Cloudy
8:54 AM 70.0 °F - 54.0 °F 57% 29.94 in 10.0 mi ESE 4.6 mph - N/A   Scattered Clouds
9:54 AM 72.0 °F - 53.1 °F 51% 29.94 in 10.0 mi SE 4.6 mph - N/A   Clear
10:54 AM 77.0 °F - 53.1 °F 43% 29.92 in 10.0 mi Calm Calm - N/A   Clear
11:54 AM 82.9 °F 81.9 °F 54.0 °F 37% 29.91 in - Variable 3.5 mph - N/A   Clear
12:54 PM 84.2 °F 82.8 °F 53.6 °F 35% 29.89 in 10.0 mi NW 5.8 mph - N/A   Partly Cloudy
1:54 PM 86.0 °F 84.5 °F 55.4 °F 35% 29.88 in 10.0 mi West 12.7 mph 20.7 mph N/A   Partly Cloudy
2:54 PM 87.1 °F 85.3 °F 55.0 °F 33% 29.85 in 10.0 mi WSW 16.1 mph 23.0 mph N/A   Partly Cloudy
3:54 PM 84.9 °F 83.3 °F 54.0 °F 34% 29.83 in 10.0 mi West 16.1 mph 25.3 mph N/A   Mostly Cloudy
4:54 PM 86.0 °F 84.5 °F 55.0 °F 35% 29.81 in 10.0 mi West 13.8 mph - N/A   Mostly Cloudy
5:50 PM 71.6 °F - 51.8 °F 50% 29.82 in 10.0 mi East 12.7 mph - N/A   Partly Cloudy
5:54 PM 72.0 °F - 51.1 °F 48% 29.83 in 10.0 mi East 10.4 mph - N/A   Partly Cloudy
6:54 PM 68.0 °F - 50.0 °F 52% 29.80 in 10.0 mi East 11.5 mph - N/A   Clear
7:54 PM 66.0 °F - 50.0 °F 56% 29.83 in 10.0 mi NE 29.9 mph 35.7 mph N/A   Mostly Cloudy
8:24 PM 66.2 °F - 51.8 °F 60% 29.91 in 9.0 mi North 19.6 mph 32.2 mph 0.00 in Rain , Thunderstorm Light Rain
8:54 PM 61.0 °F - 57.0 °F 87% 29.84 in 7.0 mi ESE 16.1 mph - 0.17 in Rain , Thunderstorm Light Rain
9:01 PM 60.8 °F - 57.2 °F 88% 29.84 in 10.0 mi SE 10.4 mph - 0.00 in Thunderstorm Thunderstorm
9:16 PM 60.8 °F - 57.2 °F 88% 29.83 in 10.0 mi SE 10.4 mph - 0.00 in   Scattered Clouds
9:54 PM 60.1 °F - 55.9 °F 86% 29.82 in 10.0 mi Calm Calm - 0.00 in   Mostly Cloudy
10:15 PM 64.4 °F - 57.2 °F 77% 29.93 in 10.0 mi NNW 23.0 mph 35.7 mph 0.00 in   Squalls
10:25 PM 64.4 °F - 59.0 °F 83% 29.95 in 2.5 mi NNW 23.0 mph 50.6 mph 0.08 in Rain Heavy Rain
10:40 PM 62.6 °F - 60.8 °F 94% 29.95 in 4.0 mi NNW 12.7 mph 23.0 mph 0.22 in Rain Heavy Rain
10:54 PM 63.0 °F - 60.1 °F 90% 29.94 in 8.0 mi NNW 6.9 mph - 0.25 in Rain Light Rain
11:54 PM 62.1 °F - 61.0 °F 96% 29.89 in 7.0 mi SSE 3.5 mph - 0.04 in Rain Light Rain